Content
SEND FEEDBACK

Daily
Averages
Monthly
Summary
Mexico

LEONA VICARIO, QUINTANA ROO


Home > North America > Mexico > Quintana Roo
Elevation: 26 feet     Latitude: 20 59N     Longitude: 087 12W

WEATHER
 
SELECT A DAY
Number of Records: 163,905;   Date Range: 1/1/95 - 8/10/14
 
SHARE

PRINT THIS DATA

[ ← Previous Day ]
WEATHER ALMANAC - AUGUST 18, 2013
[ Next Day → ]
[ °C ]   °F
Weather ElementAverageHighLow
Temperature82.4 °F87.8 °F (11:44 am)75.2 °F (5:48 am)
Dewpoint76.4 °F78.8 °F (9:49 am)73.4 °F (5:48 am)
Humidity82.7 %94 % (1:46 am)62 % (3:43 pm)
Barometer29.96 in29.98 in (9:49 am)29.92 in (5:43 pm)
Wind Speed5.4 mph12.7 mph (12:40 pm)
Weather ElementAverage
Visibility6.7 mi
Wind DirectionENE (83.9 °)

Weather ElementTotal
Precipitation---
Cooling Degree Days16.5 (Base 65)
Growing Degree Days31.5 (Base 50)
Averaged from 23 records on August 18, 2013
WEATHER CONDITIONS BREAKOUT
WIND DIRECTION BREAKOUT
WEATHER BY HOUR - AUGUST 18, 2013
[ °C ]   °F
Local TimeTemperatureDewpointHumidityBarometerVisibilityWind DirectionWind SpeedGust SpeedPrecipitationEventsConditions
1:46 AM78.8 °F77.0 °F94 %29.96 in7.0 miENE (60°)4.6 mphScattered Clouds
2:47 AM78.8 °F77.0 °F94 %29.95 in6.0 miENE (70°)2.3 mphScattered Clouds
3:45 AM78.8 °F75.2 °F89 %29.95 in6.0 miENE (70°)3.5 mphScattered Clouds
4:44 AM77.0 °F75.2 °F94 %29.94 in6.0 miENE (70°)2.3 mphScattered Clouds
5:48 AM75.2 °F73.4 °F94 %29.94 in6.0 miCalmScattered Clouds
6:43 AM75.2 °F73.4 °F94 %29.95 in6.0 miCalmScattered Clouds
7:43 AM78.8 °F77.0 °F94 %29.96 in6.0 miCalmScattered Clouds
8:40 AM84.2 °F77.0 °F79 %29.96 in6.0 miEast (100°)6.9 mphScattered Clouds
9:49 AM86.0 °F78.8 °F79 %29.98 in7.0 miEast (100°)9.2 mphMostly Cloudy
10:40 AM86.0 °F77.0 °F74 %29.97 in7.0 miESE (120°)11.5 mphMostly Cloudy
11:44 AM87.8 °F77.0 °F70 %29.98 in7.0 miESE (110°)11.5 mphMostly Cloudy
12:40 PM87.8 °F77.0 °F70 %29.98 in7.0 miSE (130°)12.7 mphScattered Clouds
1:45 PM87.8 °F75.2 °F66 %29.96 in7.0 miEast (100°)9.2 mphScattered Clouds
2:40 PM87.8 °F77.0 °F70 %29.95 in7.0 miEast (90°)9.2 mphScattered Clouds
3:43 PM87.8 °F73.4 °F62 %29.94 in7.0 miSE (130°)11.5 mphScattered Clouds
4:42 PM87.8 °F77.0 °F70 %29.93 in7.0 miEast (90°)4.6 mphScattered Clouds
5:43 PM86.0 °F77.0 °F74 %29.92 in7.0 miEast (80°)9.2 mphScattered Clouds
6:47 PM84.2 °F77.0 °F79 %29.93 in7.0 miEast (90°)5.8 mphScattered Clouds
7:42 PM82.4 °F77.0 °F84 %29.96 in7.0 miENE (70°)3.5 mphScattered Clouds
8:42 PM80.6 °F77.0 °F89 %29.97 in7.0 miNE (50°)2.3 mphScattered Clouds
9:49 PM78.8 °F77.0 °F94 %29.97 in7.0 miNorth (360°)2.3 mphScattered Clouds
10:48 PM78.8 °F77.0 °F94 %29.98 in7.0 miNE (40°)2.3 mphScattered Clouds
11:47 PM78.8 °F77.0 °F94 %29.97 in7.0 miCalmScattered Clouds
Hourly data recorded from MMUN, located miles away from Leona Vicario, Quintana Roo







STORIES FROM OUR PARTNERS